Location: *
(50.2903°S, 172.5375°W)
Time: 11:23:10
(UTC+00:00)

Resurs 1-4 Rocket - Pass Details

Date: 27 February 2020
Orbit: 800 x 814 km, 98.6° (Epoch: 06 April)

Event Time Altitude Azimuth Distance (km) Brightness Sun altitude
Exits shadow 10:24:23 17° 114° (ESE) 1,978 4.1 -28.8°
Maximum altitude 10:25:17 17° 126° (SE) 1,941 4.2 -28.9°
Drops below altitude 10° 10:28:41 10° 166° (SSE) 2,420 5.2 -29.1°
Sets 10:31:46 0° 184° (S) 3,356 6.4 -29.2°
